Weather History for KYKM - July, 2013

Change the Weather History Date:

Wednesday, July 24, 2013

  Actual Average Record
Temperature  
Mean Temperature 86 °F 72 °F  
Max Temperature 101 °F 90 °F 102 °F (2006)
Min Temperature 71 °F 54 °F 43 °F (1949)
Degree Days  
Heating Degree Days 0 0  
Month to date heating degree days 0 19  
Since 1 June heating degree days 39 117  
Since 1 July heating degree days 0 19  
Cooling Degree Days 21 7  
Month to date cooling degree days 310 141  
Year to date cooling degree days 478 226  
Since 1 June cooling degree days 426 206  
Growing Degree Days 36 (Base 50)    
Moisture  
Dew Point 41 °F    
Average Humidity 24    
Maximum Humidity 41    
Minimum Humidity 6    
Precipitation  
Precipitation 0.00 in 0.00 in 0.03 in (1970)
Month to date precipitation T 0.18  
Year to date precipitation 4.17 4.47  
Snow  
Snow 0.00 in 0.00 in 0.00 in (2002)
Month to date snowfall 0.0 0.0  
Year to date snowfall 1.1 8.6  
Since 1 July snowfall 0.0 0.0  
Snow Depth 0.00 in    
Sea Level Pressure  
Sea Level Pressure 29.89 in    
Wind  
Wind Speed 6 mph (NW)    
Max Wind Speed 14 mph    
Max Gust Speed 20 mph    
Visibility 10 miles    
Events      
T = Trace of Precipitation, MM = Missing Value Source: NWS Daily Summary

Daily Weather History Graph

Daily Weather History Graph

Search for Another Location

Airport or City:

Trip Planner

Search our weather history database for the weather conditions in past years. The results will help you decide how hot, cold, wet, or windy it might be!

Date:

Astronomy

Jul. 24, 2013 Rise Set
Actual Time 5:33 AM PDT 8:42 PM PDT
Civil Twilight 4:57 AM PDT 9:18 PM PDT
Nautical Twilight 4:10 AM PDT 10:05 PM PDT
Astronomical Twilight 3:12 AM PDT 11:03 PM PDT
Moon 9:36 PM PDT (7/24) 8:12 AM PDT (7/24)
Length of Visible Light 16h 21m
Length of Day
15h 08m
Waning Gibbous, 94% of the Moon is Illuminated
Jul 24
Waning Gibbous
Jul 29
Last Quarter
Aug 6
New
Aug 14
First Quarter
Aug 20
Full

Hourly Weather History & Observations

Time (PDT) Temp. Dew Point Humidity Pressure Visibility Wind Dir Wind Speed Gust Speed Precip Events Conditions
12:53 AM 77.0 °F 48.0 °F 36% 29.91 in 10.0 mi WNW 6.9 mph - N/A   Clear
1:53 AM 75.9 °F 46.0 °F 35% 29.91 in 10.0 mi NNW 8.1 mph - N/A   Clear
2:53 AM 75.9 °F 45.0 °F 33% 29.91 in 10.0 mi NW 10.4 mph - N/A   Clear
3:53 AM 73.9 °F 46.0 °F 37% 29.92 in 10.0 mi WNW 11.5 mph 19.6 mph N/A   Clear
4:53 AM 73.0 °F 45.0 °F 37% 29.92 in 10.0 mi NW 8.1 mph 18.4 mph N/A   Clear
5:53 AM 72.0 °F 44.1 °F 37% 29.93 in 10.0 mi NNW 8.1 mph - N/A   Clear
6:53 AM 71.1 °F 46.0 °F 41% 29.94 in 10.0 mi WNW 6.9 mph - N/A   Clear
7:53 AM 77.0 °F 43.0 °F 30% 29.94 in 10.0 mi NNW 9.2 mph - N/A   Clear
8:53 AM 81.0 °F 43.0 °F 26% 29.94 in 10.0 mi North 5.8 mph - N/A   Clear
9:53 AM 86.0 °F 41.0 °F 20% 29.93 in 10.0 mi North 9.2 mph - N/A   Clear
10:53 AM 88.0 °F 36.0 °F 16% 29.92 in 10.0 mi Calm Calm - N/A   Clear
11:53 AM 91.0 °F 32.0 °F 12% 29.91 in 10.0 mi Calm Calm - N/A   Clear
12:53 PM 95.0 °F 19.0 °F 6% 29.90 in 10.0 mi ESE 3.5 mph - N/A   Clear
1:53 PM 96.1 °F 34.0 °F 11% 29.88 in 10.0 mi Variable 4.6 mph - N/A   Clear
2:53 PM 98.1 °F 33.1 °F 10% 29.87 in 10.0 mi SSE 4.6 mph - N/A   Clear
3:53 PM 98.1 °F 36.0 °F 11% 29.85 in 10.0 mi South 3.5 mph - N/A   Clear
4:53 PM 100.0 °F 36.0 °F 11% 29.84 in 10.0 mi Variable 5.8 mph - N/A   Clear
5:53 PM 100.0 °F 33.1 °F 10% 29.83 in 10.0 mi NE 4.6 mph - N/A   Clear
6:53 PM 99.0 °F 36.0 °F 11% 29.82 in 10.0 mi SSE 3.5 mph - N/A   Clear
7:53 PM 90.0 °F 48.0 °F 24% 29.84 in 10.0 mi West 5.8 mph - N/A   Clear
8:53 PM 82.9 °F 48.9 °F 31% 29.87 in 10.0 mi WNW 6.9 mph - N/A   Clear
9:53 PM 82.0 °F 46.9 °F 29% 29.89 in 10.0 mi WNW 3.5 mph - N/A   Clear
10:53 PM 81.0 °F 45.0 °F 28% 29.90 in 10.0 mi NNW 5.8 mph - N/A   Clear
11:53 PM 79.0 °F 46.9 °F 32% 29.90 in 10.0 mi NW 6.9 mph - N/A   Clear